Showing default

STRIX-5, 65971

Orbit data source: Space-Track

STRIX-5, 65971 is a payload satellite owned by Synspective (JP) in LEO that was launched on Tue, 14 Oct 2025 UTC via an ELECTRON launch vehicle from the Rocket Lab Launch Complex (RLLC). Payload-class satellites include a variety of spacecraft equipped with specific instruments for various scientific and technological missions. These include communications satellites like Starlink; space stations such as the ISS; scientific satellites like the Hubble; Earth observation satellites from companies like Planet Labs, Umbra, and HawkEye 360; GPS; miniature CubeSats for education and research; and military/defense satellites.

Loading next visibility...
Identifier
65971, 2025-229A
Orbit
LEO
Country
Flag of JPJP / JPN
Related business
Manufacturer
Synspective
Mission
Operational spacecraft
Bus & Motor
STRIX, Unknown motor
Mass
150 kg wet, 150 kg dry
Launch date (UTC)
2025-10-14 (2 months ago)
Launch vehicle
ELECTRON
Launch site
Rocket Lab Launch Complex (RLLC)
Object type
Payload
Rocket body
Debris
Shape & HBR
Unknown shape, 1.0 m
Radar Cross Section
RCS unknown

Expand to show TLE details & history
Last TLE update: 11 hours ago

TLE from 11 hours ago
0 STRIX-5
1 65971U 25229A   25340.84860845  .00010502  00000-0  78069-3 0  9996
2 65971  41.9285 272.3598 0040263 234.6423 125.0637 15.02329714  8022
Epoch: 2025-12-06T20:21Z
TLE epoch observation values (Epoch: 2025-12-06T20:21:59.770Z)
Latitude
0.00006°
Longitude
-109.00963°
Altitude
575.495 km
Speed
7.566 km/s
True Right ascension
18h 09m 26s
True Declination
0° 00' 00"
Sunlit
Object was in daylight at epoch
Visualization orbit readout
Latitude
Unknown
Longitude
Unknown
Altitude
Unknown
Speed
Unknown
Apparent Right ascension
Unknown
Apparent Declination
Unknown
Sunlit
N/A
Visualization observer readout
Local Sidereal Time
05:08:26
Azimuth
Unknown
Elevation
Unknown
Doppler factor
Unknown
Orbital elements
Apogee altitude
589.758 km
Perigee altitude
533.873 km
Semi-major axis
6,939.953 km
Eccentricity
0.00403
Inclination
41.9285°
RAAN
272.3598°
Arg. of periapsis
234.6423°
True anomaly
125.44025°
Mean anomaly
125.0637°
Eccentric anomaly
125.25209°
Mean motion
3.75412 °/min
Orbital period
95.89 mins
BSTAR
0.00078069
Loading maneuver chart data...
Computing Atmospheric mass density...
Loading historical data...
Loading historical data...
Loading historical data...
Loading historical data...
Loading historical data...
Loading historical data...
Loading historical data...
Other satellites on launch #229 in the year 2025 (2025-10-14 UTC)

Documentation

Showing up to 5 results
|